• In Österreich
  • Länderverzeichnis
  • Für 7 Tage
  • Wassertemperatur
  • Satellitenkarten
  • Wetterkarte
  • News
  • Widgets
  • user-avatar
    Anmelden

    Stündliche Wetter Ouahigouya

    Heute, 24 September, Montag

    Zeit Temperatur Niederschläge Wind Luftdruck Luftfeuchtigkeit
    00:00 +33°C° 0 mm 3 m/S 729 mmHg 50%
    01:00 +33°C° 0 mm 3 m/S 729 mmHg 52%
    02:00 +31°C° 0 mm 3 m/S 728 mmHg 54%
    03:00 +31°C° 0 mm 3 m/S 728 mmHg 56%
    04:00 +30°C° 0 mm 3 m/S 728 mmHg 58%
    05:00 +30°C° 0 mm 3 m/S 729 mmHg 60%
    06:00 +29°C° 0 mm 3 m/S 729 mmHg 62%
    07:00 +32°C° 0 mm 4 m/S 729 mmHg 59%
    08:00 +33°C° 0 mm 4 m/S 730 mmHg 56%
    09:00 +34°C° 0 mm 4 m/S 730 mmHg 52%
    10:00 +35°C° 0 mm 3 m/S 730 mmHg 48%
    11:00 +37°C° 0 mm 3 m/S 730 mmHg 44%
    12:00 +38°C° 0 mm 2 m/S 730 mmHg 40%
    13:00 +38°C° 0 mm 2 m/S 729 mmHg 38%
    14:00 +37°C° 0 mm 1 m/S 729 mmHg 37%
    15:00 +39°C° 0 mm 1 m/S 728 mmHg 36%
    16:00 +38°C° 0.1 mm 2 m/S 728 mmHg 39%
    17:00 +37°C° 0.1 mm 2 m/S 728 mmHg 42%
    18:00 +36°C° 0.1 mm 3 m/S 728 mmHg 45%
    19:00 +36°C° 0.2 mm 3 m/S 728 mmHg 48%
    20:00 +35°C° 0.2 mm 3 m/S 728 mmHg 51%
    21:00 +34°C° 0.2 mm 3 m/S 728 mmHg 55%
    22:00 +33°C° 0.1 mm 4 m/S 729 mmHg 58%
    23:00 +33°C° 0.1 mm 5 m/S 729 mmHg 61%

    Morgen, 25 September, Dienstag

    Zeit Temperatur Niederschläge Wind Luftdruck Luftfeuchtigkeit
    00:00 +32°C° 0.1 mm 5 m/S 729 mmHg 64%
    01:00 +30°C° 3.5 mm 5 m/S 729 mmHg 67%
    02:00 +30°C° 3.5 mm 6 m/S 729 mmHg 70%
    03:00 +29°C° 3.5 mm 6 m/S 728 mmHg 73%
    04:00 +29°C° 0.4 mm 5 m/S 729 mmHg 72%
    05:00 +29°C° 0.4 mm 5 m/S 729 mmHg 72%
    06:00 +28°C° 0.4 mm 5 m/S 729 mmHg 72%
    07:00 +29°C° 0 mm 5 m/S 729 mmHg 69%
    08:00 +29°C° 0 mm 4 m/S 729 mmHg 67%
    09:00 +30°C° 0 mm 4 m/S 730 mmHg 65%
    10:00 +33°C° 0 mm 4 m/S 729 mmHg 56%
    11:00 +35°C° 0 mm 4 m/S 729 mmHg 47%
    12:00 +38°C° 0 mm 3 m/S 729 mmHg 39%
    13:00 +38°C° 0 mm 3 m/S 728 mmHg 35%
    14:00 +39°C° 0 mm 3 m/S 727 mmHg 32%
    15:00 +40°C° 0 mm 3 m/S 727 mmHg 28%
    16:00 +40°C° 0 mm 2 m/S 727 mmHg 30%
    17:00 +39°C° 0 mm 2 m/S 727 mmHg 33%
    18:00 +38°C° 0 mm 2 m/S 727 mmHg 35%
    19:00 +37°C° 0 mm 2 m/S 727 mmHg 38%
    20:00 +36°C° 0 mm 3 m/S 728 mmHg 41%
    21:00 +35°C° 0 mm 4 m/S 728 mmHg 44%
    22:00 +34°C° 0 mm 4 m/S 728 mmHg 47%
    23:00 +34°C° 0 mm 4 m/S 728 mmHg 49%

    übermorgen, 26 September, Mittwoch

    Zeit Temperatur Niederschläge Wind Luftdruck Luftfeuchtigkeit
    00:00 +33°C° 0 mm 5 m/S 728 mmHg 52%
    01:00 +32°C° 0.3 mm 5 m/S 728 mmHg 54%
    02:00 +32°C° 0.3 mm 5 m/S 727 mmHg 55%
    03:00 +32°C° 0.3 mm 5 m/S 727 mmHg 57%
    04:00 +30°C° 0 mm 5 m/S 727 mmHg 60%
    05:00 +30°C° 0 mm 4 m/S 728 mmHg 62%
    06:00 +29°C° 0 mm 4 m/S 728 mmHg 64%
    07:00 +32°C° 0 mm 4 m/S 728 mmHg 61%
    08:00 +33°C° 0 mm 5 m/S 729 mmHg 58%
    09:00 +34°C° 0 mm 5 m/S 729 mmHg 54%
    10:00 +36°C° 0 mm 5 m/S 729 mmHg 49%
    11:00 +37°C° 0 mm 5 m/S 729 mmHg 44%
    12:00 +40°C° 0 mm 5 m/S 728 mmHg 39%
    13:00 +40°C° 0 mm 4 m/S 728 mmHg 36%
    14:00 +40°C° 0 mm 3 m/S 727 mmHg 33%
    15:00 +40°C° 0 mm 2 m/S 726 mmHg 30%
    16:00 +40°C° 0 mm 2 m/S 726 mmHg 32%
    17:00 +39°C° 0 mm 2 m/S 726 mmHg 34%
    18:00 +38°C° 0 mm 2 m/S 726 mmHg 36%
    19:00 +37°C° 0 mm 3 m/S 727 mmHg 39%
    20:00 +37°C° 0 mm 3 m/S 727 mmHg 42%
    21:00 +36°C° 0 mm 4 m/S 728 mmHg 45%
    22:00 +35°C° 0 mm 4 m/S 728 mmHg 48%
    23:00 +34°C° 0 mm 4 m/S 728 mmHg 51%

    27 September, Donnerstag

    Zeit Temperatur Niederschläge Wind Luftdruck Luftfeuchtigkeit
    00:00 +34°C° 0 mm 4 m/S 728 mmHg 54%
    01:00 +33°C° 0.1 mm 4 m/S 728 mmHg 56%
    02:00 +33°C° 0.1 mm 4 m/S 727 mmHg 58%
    03:00 +32°C° 0.1 mm 4 m/S 727 mmHg 60%
    04:00 +32°C° 0.6 mm 4 m/S 727 mmHg 64%
    05:00 +30°C° 0.6 mm 5 m/S 728 mmHg 67%
    06:00 +29°C° 0.6 mm 5 m/S 728 mmHg 71%
    07:00 +30°C° 0 mm 5 m/S 728 mmHg 67%
    08:00 +32°C° 0 mm 5 m/S 729 mmHg 63%
    09:00 +33°C° 0 mm 5 m/S 729 mmHg 60%
    10:00 +35°C° 0 mm 5 m/S 729 mmHg 53%
    11:00 +36°C° 0 mm 5 m/S 729 mmHg 47%
    12:00 +39°C° 0 mm 5 m/S 728 mmHg 40%
    13:00 +39°C° 0 mm 5 m/S 728 mmHg 38%
    14:00 +40°C° 0 mm 4 m/S 727 mmHg 36%
    15:00 +40°C° 0 mm 4 m/S 726 mmHg 35%
    16:00 +38°C° 0 mm 3 m/S 727 mmHg 37%
    17:00 +38°C° 0 mm 3 m/S 727 mmHg 39%
    18:00 +37°C° 0 mm 3 m/S 727 mmHg 42%
    19:00 +36°C° 0 mm 3 m/S 727 mmHg 44%
    20:00 +36°C° 0 mm 4 m/S 728 mmHg 46%
    21:00 +35°C° 0 mm 4 m/S 728 mmHg 48%
    22:00 +34°C° 0 mm 4 m/S 728 mmHg 51%
    23:00 +34°C° 0 mm 4 m/S 728 mmHg 53%

    28 September, Freitag

    Zeit Temperatur Niederschläge Wind Luftdruck Luftfeuchtigkeit
    00:00 +33°C° 0 mm 4 m/S 728 mmHg 55%
    01:00 +32°C° 0.2 mm 4 m/S 727 mmHg 58%
    02:00 +32°C° 0.2 mm 5 m/S 727 mmHg 61%
    03:00 +30°C° 0.2 mm 5 m/S 727 mmHg 64%
    04:00 +29°C° 3.1 mm 5 m/S 727 mmHg 68%
    05:00 +29°C° 3.1 mm 5 m/S 728 mmHg 71%
    06:00 +28°C° 3.1 mm 5 m/S 729 mmHg 75%
    07:00 +29°C° 0.4 mm 4 m/S 729 mmHg 70%
    08:00 +29°C° 0.4 mm 4 m/S 730 mmHg 65%
    09:00 +30°C° 0.4 mm 3 m/S 731 mmHg 60%
    10:00 +32°C° 0.1 mm 2 m/S 730 mmHg 52%
    11:00 +34°C° 0.1 mm 2 m/S 729 mmHg 45%
    12:00 +34°C° 0.1 mm 1 m/S 729 mmHg 38%
    13:00 +35°C° 0 mm 1 m/S 728 mmHg 36%
    14:00 +36°C° 0 mm 1 m/S 728 mmHg 33%
    15:00 +37°C° 0 mm 2 m/S 727 mmHg 31%
    16:00 +36°C° 0 mm 1 m/S 727 mmHg 35%
    17:00 +35°C° 0 mm 1 m/S 727 mmHg 39%
    18:00 +34°C° 0 mm 1 m/S 727 mmHg 43%
    19:00 +34°C° 0 mm 1 m/S 728 mmHg 43%
    20:00 +33°C° 0 mm 1 m/S 728 mmHg 42%
    21:00 +33°C° 0 mm 1 m/S 728 mmHg 42%
    22:00 +32°C° 0 mm 2 m/S 728 mmHg 44%
    23:00 +32°C° 0 mm 2 m/S 728 mmHg 45%

    29 September, Samstag

    Zeit Temperatur Niederschläge Wind Luftdruck Luftfeuchtigkeit
    00:00 +31°C° 0 mm 2 m/S 728 mmHg 47%
    01:00 +31°C° 0 mm 2 m/S 728 mmHg 49%
    02:00 +30°C° 0 mm 2 m/S 728 mmHg 51%
    03:00 +30°C° 0 mm 3 m/S 728 mmHg 53%
    04:00 +29°C° 0 mm 3 m/S 728 mmHg 55%
    05:00 +29°C° 0 mm 3 m/S 728 mmHg 56%
    06:00 +29°C° 0 mm 3 m/S 729 mmHg 57%
    07:00 +30°C° 0 mm 3 m/S 729 mmHg 55%
    08:00 +32°C° 0 mm 4 m/S 729 mmHg 53%
    09:00 +33°C° 0 mm 4 m/S 730 mmHg 51%
    10:00 +35°C° 0 mm 3 m/S 729 mmHg 47%
    11:00 +36°C° 0 mm 3 m/S 729 mmHg 43%
    12:00 +37°C° 0 mm 2 m/S 729 mmHg 38%
    13:00 +37°C° 0 mm 1 m/S 728 mmHg 36%
    14:00 +37°C° 0 mm 1 m/S 728 mmHg 33%
    15:00 +36°C° 0 mm 0 m/S 727 mmHg 31%
    16:00 +37°C° 0 mm 1 m/S 727 mmHg 33%
    17:00 +37°C° 0 mm 1 m/S 727 mmHg 36%
    18:00 +36°C° 0 mm 1 m/S 727 mmHg 38%
    19:00 +36°C° 0 mm 2 m/S 727 mmHg 39%
    20:00 +36°C° 0 mm 2 m/S 727 mmHg 41%
    21:00 +35°C° 0 mm 2 m/S 728 mmHg 42%
    22:00 +34°C° 0 mm 3 m/S 728 mmHg 44%
    23:00 +34°C° 0 mm 3 m/S 728 mmHg 46%
    Mehr zeigen

    3.3.7123123